Track STARLINK-1797 now! 10-day predictions STARLINK-1797 is classified as:
1 46698U 20073AE 22182.34621434 .00000648 00000-0 62412-4 0 9994 2 46698 53.0538 170.0648 0001538 73.2676 286.8482 15.06407389 94052